Weather History for Annette Island, AK

Change the Weather History Date:

Thursday, October 13, 2011

  Actual Average Record
Temperature  
Mean Temperature 46 °F 48 °F  
Max Temperature 51 °F 53 °F 63 °F (1969)
Min Temperature 37 °F 43 °F 34 °F (1992)
Degree Days  
Heating Degree Days 20 17  
Month to date heating degree days 206  
Since 1 July heating degree days 941  
Cooling Degree Days 0    
Month to date cooling degree days  
Moisture  
Dew Point 44 °F    
Average Humidity 90    
Maximum Humidity 100    
Minimum Humidity 77    
Precipitation  
Precipitation 0.44 in 0.46 in 4.30 in (1959)
Month to date precipitation 5.40  
Year to date precipitation 70.10  
Snow  
Snow 0.00 in 0.00 in T in (1951)
Month to date snowfall 0.0  
Since 1 July snowfall 0.0  
Since 1 September snowfall 0.0  
Snow Depth -    
Sea Level Pressure  
Sea Level Pressure 30.13 in    
Wind  
Wind Speed 8 mph (SE)    
Max Wind Speed 14 mph    
Max Gust Speed 22 mph    
Visibility 9 miles    
Events Rain    
T = Trace of Precipitation, MM = Missing Value Source: NWS Daily Summary

Daily Weather History Graph

Daily Weather History Graph

Search for Another Location

Airport:

Trip Planner

Search our weather history database for the weather conditions in past years. The results will help you decide how hot, cold, wet, or windy it might be!

Date:

Astronomy

Oct. 13, 2011 Rise Set
Actual Time 7:11 AM AKDT 5:52 PM AKDT
Civil Twilight 6:35 AM AKDT 6:28 PM AKDT
Nautical Twilight 5:53 AM AKDT 7:10 PM AKDT
Astronomical Twilight 5:10 AM AKDT 7:52 PM AKDT
Moon 6:01 PM AKDT (10/13) 9:18 AM AKDT (10/13)
Length of Visible Light 11h 53m
Length of Day
10h 40m
Full, 97% of the Moon is Illuminated
Oct 13
Full
Oct 19
Last Quarter
Oct 26
New
Nov 2
First Quarter
Nov 10
Full

Hourly Weather History & Observations

Time (AKDT) Temp. Windchill Dew Point Humidity Pressure Visibility Wind Dir Wind Speed Gust Speed Precip Events Conditions
12:30 AM 50.0 °F - 46.4 °F 87% 30.11 in 10.0 mi SE 9.2 mph 16.1 mph N/A   Overcast
12:41 AM 50.0 °F - 46.4 °F 87% 30.12 in 10.0 mi SE 9.2 mph - N/A   Overcast
12:53 AM 50.0 °F - 46.0 °F 86% 30.13 in 10.0 mi SSE 11.5 mph 18.4 mph N/A   Overcast
1:13 AM 50.0 °F - 46.4 °F 87% 30.12 in 10.0 mi SE 11.5 mph - N/A   Overcast
1:35 AM 48.2 °F - 46.4 °F 93% 30.13 in 8.0 mi SSE 11.5 mph 18.4 mph 0.00 in Rain Light Rain
1:53 AM 48.9 °F - 45.0 °F 86% 30.13 in 10.0 mi SSE 12.7 mph 19.6 mph 0.00 in   Overcast
2:18 AM 48.2 °F - 44.6 °F 87% 30.13 in 10.0 mi SSE 11.5 mph 19.6 mph N/A   Mostly Cloudy
2:53 AM 48.9 °F - 45.0 °F 86% 30.14 in 10.0 mi SE 10.4 mph - N/A   Overcast
3:53 AM 48.9 °F - 44.1 °F 83% 30.14 in 10.0 mi SE 10.4 mph - N/A   Overcast
4:51 AM 48.2 °F - 42.8 °F 82% 30.14 in 10.0 mi SE 13.8 mph 21.9 mph N/A   Overcast
4:53 AM 48.9 °F - 43.0 °F 80% 30.14 in 10.0 mi SE 11.5 mph 21.9 mph N/A   Overcast
5:00 AM 48.2 °F - 42.8 °F 82% 30.14 in 10.0 mi SE 11.5 mph 21.9 mph N/A   Overcast
5:13 AM 48.2 °F - 42.8 °F 82% 30.14 in 10.0 mi SE 10.4 mph - N/A   Mostly Cloudy
5:24 AM 48.2 °F - 42.8 °F 82% 30.14 in 10.0 mi SE 9.2 mph - N/A   Mostly Cloudy
5:50 AM 48.2 °F - 42.8 °F 82% 30.13 in 10.0 mi SE 12.7 mph - N/A   Overcast
5:53 AM 48.0 °F - 43.0 °F 83% 30.14 in 10.0 mi SE 11.5 mph - N/A   Overcast
6:02 AM 46.4 °F 42.4 °F 42.8 °F 87% 30.14 in 10.0 mi SE 8.1 mph - N/A   Overcast
6:53 AM 48.9 °F - 43.0 °F 80% 30.14 in 10.0 mi SE 10.4 mph - N/A   Overcast
7:53 AM 48.0 °F - 43.0 °F 83% 30.13 in 10.0 mi SE 11.5 mph - N/A   Overcast
8:53 AM 48.9 °F - 42.1 °F 77% 30.13 in 10.0 mi SE 11.5 mph 18.4 mph N/A   Overcast
9:53 AM 48.0 °F - 44.1 °F 86% 30.14 in 10.0 mi SE 11.5 mph - 0.00 in Rain Light Rain
10:02 AM 48.2 °F - 44.6 °F 87% 30.13 in 9.0 mi SE 12.7 mph - 0.00 in Rain Light Rain
10:46 AM 46.4 °F 42.4 °F 44.6 °F 93% 30.14 in 6.0 mi ESE 8.1 mph - 0.08 in Rain Light Rain
10:53 AM 46.9 °F - 45.0 °F 93% 30.14 in 10.0 mi SE 8.1 mph - 0.08 in Rain Light Rain
11:14 AM 46.4 °F 43.5 °F 44.6 °F 93% 30.14 in 3.0 mi SE 5.8 mph - 0.04 in Rain Rain
11:53 AM 46.9 °F - 45.0 °F 93% 30.13 in 3.0 mi ESE 5.8 mph - 0.17 in Rain Rain
12:04 PM 46.4 °F 43.5 °F 46.4 °F 100% 30.12 in 2.5 mi ESE 5.8 mph - 0.03 in Rain Rain
12:14 PM 46.4 °F - 46.4 °F 100% 30.12 in 5.0 mi Calm Calm - 0.03 in Rain Light Rain
12:53 PM 48.0 °F - 46.0 °F 93% 30.13 in 10.0 mi Calm Calm - 0.03 in   Overcast
1:01 PM 48.2 °F - 46.4 °F 93% 30.13 in 10.0 mi NW 3.5 mph - N/A   Overcast
1:53 PM 48.9 °F - 46.0 °F 90% 30.12 in 10.0 mi Calm Calm - 0.00 in Rain Light Rain
2:53 PM 48.9 °F - 46.9 °F 93% 30.13 in 6.0 mi Calm Calm - 0.01 in Rain Light Rain
3:38 PM 48.2 °F - 46.4 °F 93% 30.11 in 10.0 mi NNW 4.6 mph - 0.01 in   Overcast
3:53 PM 48.0 °F - 46.0 °F 93% 30.12 in 10.0 mi Calm Calm - 0.01 in   Overcast
4:53 PM 46.9 °F - 46.0 °F 97% 30.11 in 7.0 mi Calm Calm - 0.00 in Rain Rain
5:53 PM 46.9 °F - 45.0 °F 93% 30.11 in 10.0 mi Calm Calm - 0.02 in   Overcast
6:53 PM 44.1 °F - 43.0 °F 96% 30.11 in 10.0 mi Calm Calm - N/A   Partly Cloudy
7:26 PM 44.6 °F - 42.8 °F 93% 30.11 in 10.0 mi Calm Calm - N/A   Overcast
7:41 PM 44.6 °F - 42.8 °F 93% 30.11 in 7.0 mi Calm Calm - 0.00 in Rain Rain
7:53 PM 45.0 °F - 43.0 °F 93% 30.12 in 8.0 mi Calm Calm - 0.04 in Rain Rain
8:53 PM 43.0 °F - 42.1 °F 97% 30.13 in 10.0 mi Calm Calm - 0.08 in Rain Light Rain
9:02 PM 44.6 °F - 42.8 °F 93% 30.13 in 10.0 mi Calm Calm - 0.00 in Rain Light Rain
9:53 PM 41.0 °F - 41.0 °F 100% 30.14 in 10.0 mi Calm Calm - 0.00 in   Scattered Clouds
10:39 PM 41.0 °F - 39.2 °F 93% 30.14 in 10.0 mi Calm Calm - 0.00 in   Overcast
10:53 PM 41.0 °F - 39.9 °F 96% 30.14 in 10.0 mi Calm Calm - 0.00 in   Overcast
11:53 PM 37.9 °F - 36.0 °F 93% 30.14 in 10.0 mi Calm Calm - N/A   Clear